Location: La Vaud-Gelade
(45.8617°N, 2.0003°E)
Time: 13:26:06
(UTC+00:00)

Daily predictions for brighter satellites

Satellite Brightness Start Highest point End
(mag) Time Altitude Azimuth Time Altitude Azimuth Time Altitude Azimuth
S3M 4.2 19:37:06 10° SSE 19:43:18 56° E 19:49:27 10° NNE
Sich 1 3.4 19:40:24 10° N 19:44:37 49° ENE 19:48:51 10° SSE
Helios 1A Rocket 4.1 19:40:47 10° S 19:44:46 46° W 19:48:47 10° NNW
OBJECT-B 1.0 19:43:14 10° S 19:46:28 73° W 19:49:44 10° NNW
USA 308 4.5 19:42:56 10° NW 19:46:46 31° NNE 19:50:37 10° ENE
IRS-1A Rocket 4.4 19:45:27 10° SSE 19:51:13 78° ENE 19:57:06 10° NNW
BREEZE M DEB (TANK) 3.3 19:48:52 10° W 19:56:09 52° N 19:58:49 10° ENE
Terra 4.1 19:57:17 10° ENE 19:57:50 10° NE 19:58:22 10° NE
Cosmos 1486 Rocket 4.2 19:53:02 10° SSW 19:58:22 82° WNW 20:03:45 10° NNE
Cosmos 2082 Rocket 4.0 19:54:55 10° N 19:58:46 18° NE 20:02:37 10° E
Cosmos 1553 Rocket 4.2 19:54:00 10° SSW 20:00:08 79° W 20:06:25 10° N
OE (NEXTSAT) 4.3 19:56:58 10° W 20:00:26 88° S 20:03:55 10° E
Cosmos 1151 Rocket 3.8 19:57:47 10° SSE 20:01:43 34° E 20:05:41 10° NNE
X-37B 0.8 19:58:41 10° W 20:01:50 56° SSW 20:04:43 12° ESE
CREW DRAGON DEMO-1 DEB 4.4 19:59:48 10° NW 20:02:06 25° N 20:04:23 10° ENE
SPOT 3 Rocket 3.9 19:57:26 10° SE 20:02:23 49° ENE 20:07:20 10° N
Cosmos 1437 Rocket 3.2 19:58:51 10° SSW 20:02:42 68° WNW 20:06:40 10° N
BREEZE-M DEB (TANK) 4.5 19:58:19 10° WNW 20:03:24 82° NNE 20:25:00 10° ESE
COSMOS 2406 4.2 20:00:33 10° NNW 20:05:40 33° NE 20:10:33 11° ESE
Cosmos 2084 3.8 20:01:56 10° S 20:05:45 38° ESE 20:09:41 10° NE
Resurs 01 Rocket 1.9 20:02:38 10° SSE 20:06:58 56° ENE 20:11:20 10° N
USA 290 2.4 20:04:57 10° NNW 20:08:11 71° WSW 20:11:22 10° SSE
USA 186 4.1 20:08:08 10° SW 20:09:48 16° W 20:11:24 10° NW
Meteor 1-20 Rocket 4.2 20:05:05 10° N 20:10:43 83° E 20:16:14 10° SSE
Cosmos 1933 3.3 20:09:17 10° S 20:13:19 81° E 20:17:21 10° N
Cosmos 773 Rocket 4.3 20:13:02 10° NNW 20:18:16 55° ENE 20:22:41 14° SE
MetOp-B 4.4 20:15:10 11° SE 20:20:08 56° ENE 20:25:22 10° N
Cosmos 2278 Rocket 2.9 20:19:12 10° SSE 20:24:10 32° ESE 20:29:08 10° NE
BREEZE-M DEB (TANK) 2.7 20:23:29 10° WNW 20:25:45 33° N 20:27:40 10° ENE
Spot 2 Rocket 4.3 20:22:06 14° SE 20:25:52 37° ENE 20:30:29 10° N
Cosmos 1602 3.7 20:22:13 10° N 20:26:05 78° E 20:29:33 13° SSE
Cosmos 1782 2.8 20:23:03 10° S 20:27:00 62° E 20:30:57 10° NNE
Landsat 7 3.8 20:23:02 12° SSE 20:27:24 70° ENE 20:32:10 10° N
USA 305 3.9 20:23:25 10° NW 20:27:30 42° NNE 20:31:23 11° E
GPS 2-04 Rocket1 4.4 20:25:08 10° SSW 20:27:48 17° S 20:28:42 16° SSE
IGS 5A 3.4 20:24:31 12° SSE 20:28:20 80° ENE 20:32:31 10° N
Cosmos 1844 Rocket 3.9 20:23:06 10° SW 20:28:26 46° WNW 20:33:50 10° NNE
Cosmos 1242 Rocket 2.8 20:26:02 10° SSW 20:29:35 69° WNW 20:33:07 10° N
Cosmos 1515 Rocket 4.4 20:29:37 16° SE 20:32:25 33° E 20:36:22 10° NNE
BREEZE-M DEB (TANK) 3.9 20:24:32 10° WNW 20:33:26 51° SW 20:35:39 19° SSE
ERS-1 Rocket 4.1 20:30:20 15° ESE 20:33:33 30° ENE 20:37:53 10° N
CZ-4C R/B 3.1 20:29:59 10° NW 20:37:10 72° NE 20:43:47 17° SE
Cosmos 1633 Rocket 3.0 20:35:29 10° N 20:39:55 89° W 20:43:38 14° S
Akebono 3.8 20:41:17 10° NNW 20:43:33 62° ENE 20:43:57 47° SE
ATLAS 5 CENTAUR R/B 2.9 20:40:56 10° NW 20:46:29 53° WSW 20:51:46 15° SSE
USA 306 3.5 20:42:44 10° NW 20:46:54 50° NNE 20:49:58 17° E
Cosmos 1328 Rocket 3.5 20:45:01 10° S 20:49:27 87° E 20:53:54 10° N
Cosmos 1812 2.9 20:47:18 22° SSE 20:49:28 49° E 20:53:13 10° NNE
Cosmos 1777 Rocket 3.9 20:45:56 10° S 20:51:05 69° ESE 20:56:16 10° NNE
SWARM A 4.4 20:48:07 10° N 20:51:24 55° E 20:52:43 31° SSE
Cosmos 1470 Rocket 3.6 20:47:43 10° N 20:52:13 72° E 20:55:01 23° SSE
ARIANE 5 R/B 2.7 20:52:22 25° SE 20:54:46 58° ENE 20:59:02 10° N
CRYOSAT 2 4.4 20:53:55 15° S 20:58:02 81° W 21:02:58 10° N
CARTOSAT-1 3.7 20:56:43 26° SE 20:58:57 59° ENE 21:03:12 10° N
Cosmos 1666 3.1 20:55:37 10° N 20:59:13 45° ENE 21:00:28 32° SE
Cosmos 1833 Rocket 2.7 20:58:01 10° NNW 21:03:44 83° ENE 21:07:04 26° SSE
Meteor 1-5 Rocket 4.0 20:59:48 10° N 21:05:13 77° E 21:08:22 25° SSE
BREEZE-M R/B 3.0 21:03:13 10° W 21:05:36 40° N 21:07:49 12° ENE
Cosmos 1933 Rocket 3.5 21:02:08 10° N 21:06:28 66° E 21:08:26 31° SSE
Cosmos 1437 3.4 21:05:01 17° SSW 21:06:58 46° WNW 21:09:44 10° N
Meteor 1-10 Rocket 4.4 21:05:30 23° SSE 21:08:51 54° E 21:14:22 10° NNE
Cosmos 1536 4.1 21:06:15 10° NNE 21:09:40 26° ENE 21:10:33 24° E
USA 307 3.1 21:09:21 10° NW 21:13:36 67° NNE 21:15:37 30° ESE
Cosmos 2184 Rocket 4.0 21:07:54 10° N 21:14:06 65° ENE 21:17:33 27° SSE
CZ-2C R/B 4.3 21:11:11 10° N 21:15:36 58° WNW 21:20:03 10° SSW
H-2A R/B 4.1 21:13:53 10° NNE 21:17:46 35° E 21:18:18 34° ESE
Cosmos 2074 Rocket 4.0 21:12:18 10° N 21:18:38 73° E 21:22:13 27° SSE
NOSS 3-4 (A) 4.0 21:12:27 10° NW 21:19:23 71° NE 21:24:06 26° SE
NOSS 3-4 (C) 4.0 21:12:33 10° NW 21:19:29 70° NE 21:24:13 25° SE
JB-3 4.1 21:16:25 10° NNE 21:20:19 84° ESE 21:21:59 33° S
USA 245 3.3 21:20:53 32° W 21:20:53 32° W 21:22:55 10° NNW
SJ 16-02 1.2 21:19:29 25° S 21:22:02 75° ESE 21:26:29 10° NNE
Nadezhda 1 Rocket 4.3 21:19:52 28° SSE 21:22:55 50° E 21:28:55 10° NNE
SPOT 1/Viking Rocket 4.2 21:23:34 19° SSW 21:27:06 50° W 21:32:10 10° NNW
USA 308 2.9 21:22:56 10° NW 21:27:14 80° NNE 21:28:43 40° ESE
Cosmos 1500 4.5 21:25:38 10° NNW 21:29:04 35° W 21:30:59 21° SW
ATLAS 2AS CENTAUR R/B 3.2 21:25:35 10° NW 21:32:53 54° NE 21:37:04 24° ESE
Iridium 4 Rocket 3.8 21:30:58 25° S 21:34:32 86° W 21:40:30 10° N
Terra 1.8 21:33:01 40° SE 21:34:41 71° ENE 21:39:27 10° N
CREW DRAGON DEMO-1 DEB 3.5 21:34:01 10° WNW 21:35:56 43° WNW 21:35:56 43° WNW
Cosmos 1544 4.0 21:33:44 10° N 21:37:02 33° ENE 21:37:03 33° ENE
X-37B 2.9 21:35:51 10° WSW 21:36:59 15° WSW 21:36:59 15° WSW
SPOT 5 3.1 21:38:33 34° S 21:40:48 76° WSW 21:46:06 10° NNW
Cosmos 1610 Rocket 4.4 21:35:21 10° N 21:41:30 70° E 21:44:05 36° SSE
Cosmos 2082 Rocket 2.1 21:38:01 10° NNW 21:43:41 88° ENE 21:45:50 40° SSE
Resurs 01 Rocket 4.1 21:41:03 10° SW 21:43:49 16° W 21:46:36 10° NW
Cosmos 158 Rocket 3.8 21:40:25 10° NNW 21:45:19 83° WSW 21:46:51 45° SSE
Cosmos 2228 Rocket 3.0 21:45:34 46° S 21:46:52 85° E 21:51:21 10° N
Cosmos 44 4.2 21:44:34 10° NNW 21:49:50 47° NE 21:51:59 31° E
COSMOS 2406 4.0 21:44:45 10° NW 21:50:06 44° WSW 21:52:38 27° SSW
Cosmos 1271 Rocket 3.5 21:54:20 31° SW 21:55:53 51° WNW 21:59:49 10° N
Meteor 1-27 Rocket 3.7 21:58:46 35° S 22:01:23 90° WSW 22:07:21 10° N
Cosmos 2341 Rocket 4.3 21:55:42 10° N 22:02:00 55° ENE 22:04:08 39° SE
USA 305 3.2 22:03:24 10° WNW 22:07:27 51° SW 22:07:27 51° SW
Cosmos 2278 Rocket 3.3 22:02:44 10° SW 22:08:07 43° NW 22:13:30 10° NNE
Cosmos 1295 Rocket 4.5 22:02:40 10° N 22:09:03 85° W 22:11:29 41° S
Cosmos 1937 Rocket 3.7 22:09:32 47° ESE 22:09:47 47° ESE 22:14:44 10° NNE
Milstar 3 4.3 22:01:20 10° WSW 22:10:46 27° S 22:10:46 27° S
SL-24 R/B - RUBIN 2 4.1 22:06:25 10° NNW 22:11:55 67° NE 22:13:07 49° ESE
ERS-1 Rocket 4.0 22:10:19 28° SW 22:12:13 38° W 22:16:55 10° NNW
Cosmos 1680 Rocket 3.4 22:08:17 10° NNW 22:13:39 87° WSW 22:14:52 55° SSE
Cosmos 1943 Rocket 2.4 22:13:55 45° ESE 22:14:19 46° ESE 22:19:40 10° NE
Cosmos 1869 Rocket 3.9 22:11:08 10° NNW 22:15:22 53° W 22:16:04 47° SW
Cosmos 2369 Rocket 3.4 22:17:10 26° E 22:17:10 26° E 22:21:15 10° NE
Centaur D AC-29 4.4 21:23:01 10° WSW 22:17:32 31° SSW 22:20:13 29° S
Gbstr 26 Del rocket 4.4 22:12:07 10° WNW 22:19:35 66° NNE 22:23:48 22° E
Cosmos 1238 Rocket 3.8 22:17:54 10° N 22:24:04 65° ENE 22:25:13 52° SE
Cosmos 858 Rocket 4.4 22:24:21 59° SE 22:24:46 62° ESE 22:29:57 10° NNE
CZ-4C R/B 4.1 22:19:00 10° NW 22:25:35 33° WSW 22:28:58 25° SSW
USA 306 3.9 22:22:50 10° WNW 22:26:02 35° WSW 22:26:02 35° WSW
Meteor 2-9 Rocket 4.5 22:21:42 10° N 22:27:24 56° ENE 22:28:36 47° ESE
Okean 1 3.7 22:29:36 54° NE 22:29:36 54° NE 22:32:57 10° NNE
Cosmos 1340 Rocket 3.1 22:27:04 10° NNW 22:31:03 61° W 22:31:03 61° W
Cosmos 1818 3.7 22:27:26 10° NNW 22:32:55 67° NE 22:34:12 50° ESE
Cosmos 1707 Rocket 3.5 22:32:59 70° WSW 22:33:17 73° W 22:37:42 10° N
DNEPR-1 R/B 4.0 22:34:46 59° S 22:35:40 70° ESE 22:40:43 10° NE
SL-8 Rocket 3.9 22:33:34 10° N 22:39:56 81° E 22:41:32 53° SSE
ALOS 2 3.5 22:41:06 37° ENE 22:41:15 38° ENE 22:45:19 10° N
Cosmos 1536 4.4 22:42:37 10° NNW 22:46:01 26° W 22:46:16 26° W
Meteor 2-4 Rocket 4.1 22:47:05 45° ESE 22:47:34 46° E 22:52:55 10° NNE
Cosmos 1898 Rocket 3.9 22:47:28 39° SW 22:49:16 60° WNW 22:54:34 10° NNE
Cosmos 1743 3.7 22:46:16 10° NNW 22:49:32 40° WNW 22:49:32 40° WNW
Cosmos 1975 3.3 22:57:09 10° N 23:00:28 59° N 23:00:28 59° N
SJ 16-02 4.1 22:58:44 10° W 23:01:10 14° NW 23:03:37 10° NNW
RESURS DK-1 3.7 22:59:29 10° N 23:03:17 32° NE 23:03:31 32° ENE
Cosmos 1733 Rocket 3.7 23:00:58 10° NNW 23:04:54 47° W 23:04:54 47° W
Cosmos 1461 3.2 23:07:22 72° NE 23:07:22 72° NE 23:11:35 10° NE
Cosmos 2297 4.2 23:04:38 33° WSW 23:06:59 55° WNW 23:12:35 10° NNE
Cosmos 372 Rocket 3.7 23:07:02 82° SSE 23:07:11 84° ESE 23:12:19 10° NNE
Cosmos 864 Rocket 4.4 23:01:07 10° N 23:07:18 81° W 23:08:29 60° S
Cosmos 2242 Rocket 4.2 23:09:01 48° ENE 23:09:01 48° ENE 23:12:46 10° NNE
SeaSat 1 4.1 23:05:44 10° NE 23:08:32 22° E 23:08:32 22° E
Cosmos 1959 Rocket 4.4 23:03:49 10° NNW 23:10:03 75° W 23:11:16 58° SSW
Terra 4.0 23:11:54 13° WSW 23:12:56 14° W 23:15:30 10° NW
Meteor 1-18 Rocket 4.3 23:16:27 57° SW 23:17:27 69° WNW 23:23:03 10° N
ERBS 4.4 23:14:32 10° NW 23:16:00 24° NW 23:16:00 24° NW
USA 215 3.7 23:13:57 14° ESE 23:19:37 58° NNE 23:26:00 10° NW
Cosmos 1908 Rocket 3.7 23:15:35 10° N 23:19:43 75° N 23:19:43 75° N
ATLAS 2AS CENTAUR R/B 3.3 23:17:01 10° NW 23:23:37 39° WSW 23:24:29 38° SW
Cosmos 1867 3.7 23:25:56 58° ESE 23:25:56 58° ESE 23:31:01 10° NE
Nimbus 7 Rocket 4.4 23:20:06 10° NNE 23:25:58 65° ESE 23:26:37 61° SE
Cosmos 1125 Rocket 4.1 23:26:49 42° E 23:26:49 42° E 23:31:22 10° NE
Cosmos 2082 Rocket 4.2 23:24:07 10° WNW 23:26:56 14° W 23:27:41 14° WSW
ATLAS CENTAUR R/B 3.2 23:38:29 21° ENE 23:38:29 21° ENE 23:39:58 10° NE
Cosmos 2344 4.5 23:30:08 10° NW 23:39:15 71° NE 23:51:07 12° SE
Cosmos 1821 Rocket 4.0 23:33:45 10° N 23:40:13 85° E 23:41:25 62° SSE
Cosmos 1934 Rocket 4.5 23:34:47 10° N 23:40:44 49° ENE 23:42:10 41° ESE
Cosmos 1703 Rocket 3.9 23:48:52 59° NW 23:48:52 59° NW 23:52:50 10° N
Okean 3 4.0 23:50:46 56° NE 23:50:46 56° NE 23:54:17 10° NNE
Cosmos 1782 Rocket 3.8 23:47:27 10° NNW 23:51:22 65° NW 23:51:22 65° NW
Lacrosse 5 3.6 23:54:51 20° E 23:54:51 20° E 23:57:07 10° ENE
